Regional Weather Roundup
Issued by NWS

Home | Current Version | Previous Version | Graphics & Text | Print | Product List | Glossary On
Versions: 1 2 3 4 5 6 7 8 9 10 11 12 13 14 15 16 17 18 19 20 21 22 23 24 25 26 27 28 29 30 31 32 33 34 35 36 37 38 39 40 41 42 43 44 45 46 47 48 49 50
000
ASUS43 KMKX 160210
RWRWI

WISCONSIN REGIONAL WEATHER ROUNDUP
NATIONAL WEATHER SERVICE MILWAUKEE/SULLIVAN WI
800 PM CST FRI DEC 15 2017

NOTE: "FAIR" INDICATES FEW OR NO CLOUDS BELOW 12,000 FEET WITH NO
SIGNIFICANT WEATHER AND/OR OBSTRUCTIONS TO VISIBILITY.

WIZ001-002-006>008-014>016-023>028-160300-
NORTHWEST WISCONSIN

CITY           SKY/WX    TMP DP  RH WIND       PRES   REMARKS
SUPERIOR ARPT  CLOUDY    16   8  70 CALM      29.80S
ASHLAND        CLOUDY    11   6  81 CALM      29.81S
HAYWARD        CLOUDY    16   9  74 CALM      29.76F
SIREN          LGT SNOW  19  13  75 CALM      29.76S
CUMBERLAND     LGT SNOW  18  12  79 CALM      29.75F
RICE LAKE      LGT SNOW  18  13  79 CALM      29.79S
CHETEK         CLOUDY    18  12  79 CALM      29.77F
LADYSMITH      CLOUDY    16  10  77 E3        29.79F
EAU CLAIRE     LGT SNOW  21  17  84 SE5       29.78F FOG     WCI  15
MENOMONIE      LGT SNOW  23  20  87 E6        29.78F WCI  15
NEW RICHMOND   FLURRIES  22  18  85 E6        29.76F WCI  15
OSCEOLA        FLURRIES  22  19  89 E6        29.79S WCI  15
$$

WIZ003>005-009-010-017-018-160300-
NORTH CENTRAL WISCONSIN

CITY           SKY/WX    TMP DP  RH WIND       PRES   REMARKS
MANITOWISH WTR CLOUDY     2   0  91 CALM      29.75S
ARBOR VITAE    CLOUDY     5   1  86 CALM      29.74F
WOODRUFF       CLOUDY     5   1  86 CALM      29.74F
RHINELANDER    CLOUDY     6   3  87 CALM      29.76S
EAGLE RIVER    CLOUDY     4   0  83 CALM      29.75S
LAND O LAKES   CLOUDY     5   2  88 CALM      29.76F
PHILLIPS       CLOUDY     9   7  89 CALM      29.76S
TOMAHAWK       CLOUDY     7   4  87 CALM      29.77F
MEDFORD        CLOUDY    14   9  80 CALM      29.76S
MERRILL        CLOUDY    10   7  88 CALM      29.79F
$$

WIZ029-030-035-036-043>047-160300-
CENTRAL WISCONSIN

CITY           SKY/WX    TMP DP  RH WIND       PRES   REMARKS
WAUSAU         CLOUDY    14   8  77 CALM      29.78S
MOSINEE        CLOUDY    14  10  85 CALM        N/A
MARSHFIELD     CLOUDY    17  10  74 CALM      29.78S
STEVENS POINT  CLOUDY    14  10  86 NE3       29.81F
WAUPACA        CLOUDY    21  13  72 CALM      29.85R
WAUTOMA        CLOUDY    23  16  74 CALM      29.84S
WISC RAPIDS    CLOUDY    20  12  71 SE3       29.83R
CAMP DOUGLAS   CLOUDY    27  22  82 E3        29.80F
$$

WIZ011>013-019>022-031-037>040-048>050-160300-
NORTHEAST WISCONSIN

CITY           SKY/WX    TMP DP  RH WIND       PRES   REMARKS
ANTIGO         CLOUDY     6   3  89 CALM      29.78F
SHAWANO        CLOUDY    11   7  83 CALM      29.84S
OCONTO         CLOUDY     5   1  85 CALM      29.86S
STURGEON BAY   CLOUDY    18   9  68 W8        29.85R WCI   8
GREEN BAY      CLOUDY    12   6  77 CALM      29.86R
MANITOWOC      CLOUDY    15  10  80 CALM      29.87R
APPLETON       CLOUDY    19   9  63 CALM      29.83R
CLINTONVILLE   NOT AVBL
OSHKOSH        CLOUDY    22  15  75 CALM      29.84S
$$

WIZ032>034-041-042-053>061-160300-
SOUTHWEST WISCONSIN

CITY           SKY/WX    TMP DP  RH WIND       PRES   REMARKS
LA CROSSE      FLURRIES  32  27  81 SE3       29.80S
SPARTA         FLURRIES  29  26  90 CALM      29.81S
VIROQUA        CLOUDY    30  30 100 CALM      29.79S
BOSCOBEL       MOCLDY    30  26  85 CALM      29.82F
PRAIRIE DU CHI CLOUDY    32  26  78 CALM      29.81F
PLATTEVILLE    CLOUDY    31  27  88 S7        29.82F WCI  24
$$

WIZ056-057-062-063-064-067-068-160300-
SOUTH CENTRAL WISCONSIN

CITY           SKY/WX    TMP DP  RH WIND       PRES   REMARKS
REEDSBURG      CLOUDY    30  27  88 CALM      29.81F
BARABOO/DELLS  CLOUDY    30  26  84 SW6       29.81F WCI  24
LONE ROCK      CLOUDY    31  28  89 E3        29.83F
MINERAL POINT  PTCLDY    32  30  93 S6        29.81F WCI  26
MADISON        FLURRIES  31  26  82 S5        29.84F WCI  26
MIDDLETON      CLOUDY    32  28  84 SW3       29.84S
WATERTOWN      FLURRIES  30  28  94 SW6       29.84F WCI  24
MONROE         CLOUDY    32  27  80 S12       29.83S WCI  23
JANESVILLE     CLOUDY    32  27  80 S5        29.86S WCI  27
$$

WIZ051-052-058>065-066-070>072-160300-
SOUTHEAST WISCONSIN

CITY           SKY/WX    TMP DP  RH WIND       PRES   REMARKS
MILWAUKEE      FLURRIES  32  25  75 SW12      29.87R WCI  23
WAUKESHA       CLOUDY    27  23  86 SW7       29.86S WCI  19
MILWAUKEE/TIMM CLOUDY    30  23  74 SW7       29.87R WCI  23
RACINE         FLURRIES  31  25  78 SW8       29.89S WCI  23
BURLINGTON     CLOUDY    31  28  88 SW8       29.86F WCI  23
KENOSHA        FLURRIES  32  25  75 SW6       29.88R WCI  26
FOND DU LAC    CLOUDY    23  15  71 CALM      29.85R
SHEBOYGAN      CLOUDY    20  16  84 CALM      29.85R
WEST BEND      CLOUDY    23  19  86 CALM      29.85R
JUNEAU         FLURRIES  28  25  90 SW5       29.84F WCI  22
$$

LSZ147-162-160300-
LAKE SUPERIOR

STATION/POSITION TIME  TEMP    WIND        PRES    WAVE
                       AIR SEA DIR/SP/G            HT/PER
                 (UTC) (F)     (DEG/KT/KT) (MB)    (FT/S)
DEVILS ISLAND    0200   18     200/  3/  5 1010.6F
SAXON HARBOR     0130    9                 1009.5F
$$

LMZ867-665-643>646-160300-
LAKE MICHIGAN

STATION/POSITION TIME  TEMP    WIND        PRES    WAVE
                       AIR SEA DIR/SP/G            HT/PER
                 (UTC) (F)     (DEG/KT/KT) (MB)    (FT/S)
NORTHPORT PIER   0202   19     280/  7/ 12 1010.5
KEWAUNEE LAKESHO 0148    9     310/  2/  3 1010.5R
SHEBOYGAN LAKESH 0200   23     330/  3/  4 1012.2R
PORT WASHINGTON  0140   25     300/  2/  5 1012.5R
MILWAUKEE LAKESH 0150   32     240/  9/ 11   N/A
KENOSHA   LAKESH 0200   32     220/  7/  9 1012.2
$$

TC  - TEMPERATURE IN CELSIUS
VSB - VISIBILITY IN STATUTE MILES
WCI - WIND CHILL INDEX
HX  - HEAT INDEX





USA.gov is the U.S. government's official web portal to all federal, state and local government web resources and services.